AirNav   Air Wisconsin pilot careers
 
 1690 users online  

35A Union County Airport, Troy Shelton Field
Union, South Carolina, USA

GOING TO UNION?


FAA INFORMATION EFFECTIVE 21 JUNE 2018

Location

FAA Identifier: 35A
Lat/Long: 34-41-13.0300N / 081-38-28.2000W
34-41.217167N / 081-38.470000W
34.6869528 / -81.6411667
(estimated)
Elevation: 610.2 ft. / 186 m (estimated)
Variation: 06W (2000)
From city: 1 mile SW of UNION, SC
Time zone: UTC -4 (UTC -5 during Standard Time)
Zip code: 29379

Airport Operations

Airport use: Open to the public
Activation date: 09/1970
Control tower: no
ARTCC: ATLANTA CENTER
FSS: ANDERSON FLIGHT SERVICE STATION
NOTAMs facility: AND (NOTAM-D service available)
Attendance: MON-FRI 0800-1700
Wind indicator: lighted
Segmented circle: yes
Lights: MIRL RY 05/23 PRESET MED INTST DUSK-0000; AFTER 0000 ACTVT - CTAF. ACTVT PAPI RYS 05 & 23 - CTAF.
Beacon: white-green (lighted land airport)
Operates sunset to sunrise.

Airport Communications

CTAF/UNICOM: 122.7
GREER APPROACH: 119.4 [1200-0400Z++]
GREER DEPARTURE: 119.4 [1200-0400Z++]
WX AWOS-3 at LUX (19 nm SW): 123.975 (864-682-3639)
  • APCH/DEP SVC PRVDD BY ATLANTA ARTCC ON FREQS 135.35/263.125 (OWING RCAG) WHEN APCH CTL CLSD.

Nearby radio navigation aids

VOR radial/distance  VOR name  Freq  Var
SPAr148/25.1SPARTANBURG VORTAC115.7002W
GRDr045/36.4GREENWOOD VORTAC115.5001W

 
NDB name  Hdg/Dist  Freq  Var  ID
UNION COUNTYat field32606WUOT ..- --- -
FAIRMONT132/21.324805WFRT ..-. .-. -
CHESTER261/22.522006WDCM -.. -.-. --
ENOREE006/22.627807WEOE . --- .
FIRST RIVER190/34.041706WSLP ... .-.. .--.
CORONACA047/34.123907WGIW --. .. .--
STONIA224/38.526006WGHJ --. .... .---
LANCASTER274/38.640007WLKR .-.. -.- .-.

Airport Services

Fuel available: 100LL
SELF-SERVE FUEL AVBL 24 HRS. FOR SVC AFT HRS CALL 864-426-3003.
Parking: hangars and tiedowns
Airframe service: MAJOR
Powerplant service: MAJOR
Bottled oxygen: NONE
Bulk oxygen: NONE

Runway Information

Runway 5/23

Dimensions: 3508 x 60 ft. / 1069 x 18 m
Surface: asphalt, in good condition
Weight bearing capacity: 
Single wheel: 12.5
Runway edge lights: medium intensity
Gradient: SOUTHWEST.
RUNWAY 5  RUNWAY 23
Latitude: 34-41.020500N34-41.413833N
Longitude: 081-38.726667W081-38.213333W
Elevation: 573.4 ft.610.0 ft.
Gradient: 1.0% UP1.0% DOWN
Traffic pattern: leftleft
Runway heading: 053 magnetic, 047 true233 magnetic, 227 true
Markings: nonprecision, in good conditionbasic, in good condition
Visual slope indicator: 2-light PAPI on left (4.00 degrees glide path)2-light PAPI on left (4.00 degrees glide path)
Touchdown point: yes, no lightsyes, no lights
Obstructions: none66 ft. tree, 1466 ft. from runway, 103 ft. left of centerline, 19:1 slope to clear

Airport Ownership and Management from official FAA records

Ownership: Publicly-owned
Owner: UNION COUNTY
PO DRAWER G
UNION, SC 29379
Phone 864-429-1600
Manager: RONNIE WADE
UNION COUNTY AIRPORT, 198 AIRPORT RD
UNION, SC 29379
Phone 864-429-1680

Airport Operational Statistics

Aircraft based on the field: 12
Single engine airplanes: 11
Multi engine airplanes: 1
    
Aircraft operations: avg 57/week *
56% transient general aviation
44% local general aviation
* for 12-month period ending 24 August 2017

Instrument Procedures

NOTE: All procedures below are presented as PDF files. If you need a reader for these files, you should download the free Adobe Reader.

NOT FOR NAVIGATION. Please procure official charts for flight.
FAA instrument procedures published for use from 21 June 2018 at 0901Z to 19 July 2018 at 0900Z.

 
IAPs - Instrument Approach Procedures
RNAV (GPS) RWY 05   download (180KB)
RNAV (GPS) RWY 23   download (181KB)
NDB RWY 05   download (163KB)
NOTE: Special Take-Off Minimums/Departure Procedures apply   download (141KB)

Other nearby airports with instrument procedures:

KLUX - Laurens County Airport (19 nm SW)
KSPA - Spartanburg Downtown Memorial Airport (21 nm NW)
KEOE - Newberry County Airport (23 nm S)
KDCM - Chester Catawba Regional Airport (23 nm E)
KGSP - Greenville Spartanburg International Airport (31 nm NW)
 
Loc | Ops | Rwys | IFR | FBO | Links
Com | Nav | Svcs | Stats | Notes


 
Area around 35A (Union County Airport, Troy Shelton Field)
 
Road maps at: MapQuest Bing Google
 
Aerial photo
WARNING: Photo may not be current or correct
Aerial photo of 35A (Union County Airport, Troy Shelton Field)
Do you have a better or more recent aerial photo of Union County Airport, Troy Shelton Field that you would like to share? If so, please send us your photo.

 
Sectional chart

 
Airport distance calculator
Flying to Union County Airport, Troy Shelton Field? Find the distance to fly.

From to 35A

Sunrise and sunset
Times for 17-Jul-2018
 Local
(UTC-4)
 Zulu
(UTC)
Morning civil twilight05:5809:58
Sunrise06:2710:27
Sunset20:3800:38
Evening civil twilight21:0701:07

Current date and time
Zulu (UTC)  17-Jul-2018 18:08:56
Local (UTC-4)  17-Jul-2018 14:08:56
 
METAR
KLUX 
19nm SW 
171755Z AUTO 23006KT 7SM CLR 30/22 A2998 RMK AO2
KEOE 
23nm S 
171755Z AUTO 24009G17KT 10SM +RA SCT027 BKN037 BKN049 28/23 A3001 RMK AO2 P0002
KDCM 
23nm E 
171535Z AUTO 00000KT 7SM BKN009 OVC015 26/21 A3002 RMK AO2 LTG DSNT SE
KSPA 
25nm NW 
171755Z AUTO 23005KT 10SM SCT031 BKN036 BKN044 29/22 A2997 RMK AO2
KGSP 
31nm NW 
171753Z 18006KT 10SM FEW030 30/23 A2999 RMK AO2 SLP140 T03000228 10306 20228 58016
KUZA 
34nm NE 
171754Z AUTO 20006KT 10SM CLR 29/24 A2998 RMK AO2 SLP136 T02940239 10294 20233 58017
KEHO 
34nm N 
171755Z AUTO 16003KT 10SM SCT027 SCT034 30/22 A2997 RMK AO2 T02960222 10298 20226
KFDW 
34nm SE 
171755Z AUTO 25005KT 10SM SCT028 31/22 A2997 RMK AO1
KGMU 
36nm W 
171753Z VRB05KT 10SM SCT028 31/24 A2999 RMK AO2 SLP144 TCU W-N T03060239 10306 20239 58016
KGRD 
36nm SW 
171756Z AUTO 24006KT 10SM FEW024 29/23 A3000 RMK AO2 SLP150 T02890233 10294 20228 58015
TAF
KGSP 
31nm NW 
171730Z 1718/1818 23007KT P6SM BKN045 TEMPO 1719/1723 4SM -TSRA OVC025CB FM180100 26003KT P6SM BKN045 FM180700 31003KT P6SM SCT045 BKN250 FM181300 03005KT P6SM BKN250
KGMU 
36nm W 
171730Z 1718/1818 23007KT P6SM BKN045 TEMPO 1719/1723 4SM -TSRA OVC025CB FM180100 28005KT P6SM BKN045 FM180700 35004KT P6SM SCT045 BKN250 FM181300 03007KT P6SM BKN250
NOTAMs
Click for the latest NOTAMs
NOTAMs are issued by the DoD/FAA and will open in a separate window not controlled by AirNav.

 

 
 

FBO, Fuel Providers, and Aircraft Ground Support

  
 Business Name 
 
 Contact 
 
 Services / Description 
 
Fuel Prices
 
Comments
  
Union County Airport 864-429-1680
no information available

If you are affiliated with Union County Airport and would like to show here your services, contact info, web link, logo, and more, click here
100LL
SS $4.30 
 Updated 04-Jul-2018
 
   3 read write
SS=Self service
Update Fuel Prices
 

Would you like to see your business listed on this page?

 If your business provides an interesting product or service to pilots, flight crews, aircraft, or users of the Union County Airport, Troy Shelton Field, you should consider listing it here.  To start the listing process, click on the button below
 
Add a business
 

Other Pages about Union County Airport, Troy Shelton Field

Update a link
 
Copyright © AirNav, LLC. All rights reserved. Privacy Policy  Contact